ELECTRON KICK STAGE R/B, 62086

Orbit data source: Space-Track

ELECTRON KICK STAGE R/B, 62086 is space debris in SSO originally from a launch on Mon, 25 Nov 2024 UTC launched from the Rocket Lab Launch Complex (RLLC). Debris objects in space refer to the collection of defunct objects orbiting the Earth. Examples of debris include non-operational satellites, rocket bodies, and fragments generated from explosions, collisions, or faulty payload assembly.

Loading next visibility...
Identifier
62086, 2024-219F
Orbit
SSO
Country
Flag of USUS
Related business
Manufacturer
Rocket Lab
Mission
Spacecraft
Bus & Motor
KICK STAGE, CURIE
Mass
~50 kg wet, ~50 kg dry
Launch date (UTC)
2024-11-25 (1 year ago)
Launch vehicle
Unknown
Launch site
Rocket Lab Launch Complex (RLLC)
Object type
Payload
Rocket body
Debris
Shape & HBR
Trunc Cone, 0.7 m
Radar Cross Section
0.760 m², Medium (>0.1 m² and < 1m²)

Expand to show TLE details & history
Last TLE update: 7 hours ago

TLE from 7 hours ago
0 ELECTRON KICK STAGE R/B
1 62086U 24219F   26036.46455525  .00005994  00000-0  52770-3 0  9994
2 62086  97.9743 211.5643 0052996  31.6545 328.7844 14.95794556 65248
Epoch: 2026-02-05T11:08Z
TLE epoch observation values (Epoch: 2026-02-05T11:08:57.573Z)
Latitude
-0.00001°
Longitude
-91.29199°
Altitude
551.458 km
Speed
7.603 km/s
True Right ascension
14h 06m 15s
True Declination
0° 00' 00"
Sunlit
Object was in daylight at epoch
Visualization orbit readout
Latitude
Unknown
Longitude
Unknown
Altitude
Unknown
Speed
Unknown
Apparent Right ascension
Unknown
Apparent Declination
Unknown
Sunlit
N/A
Visualization observer readout
Local Sidereal Time
19:47:04
Azimuth
Unknown
Elevation
Unknown
Doppler factor
Unknown
Orbital elements
Apogee altitude
613.79 km
Perigee altitude
540.072 km
Semi-major axis
6,955.068 km
Eccentricity
0.0053
Inclination
97.9743°
RAAN
211.5643°
Arg. of periapsis
31.6545°
True anomaly
328.46788°
Mean anomaly
328.7844°
Eccentric anomaly
328.62632°
Mean motion
3.74189 °/min
Orbital period
96.21 mins
BSTAR
0.0005277
Loading maneuver chart data...
Computing Atmospheric mass density...
Loading historical data...
Loading historical data...
Loading historical data...
Loading historical data...
Loading historical data...
Loading historical data...
Loading historical data...

Documentation

Showing up to 5 results
|